Regional Weather Roundup
Issued by NWS Bismarck, ND

Home | Current Version | Previous Version | Text Only | Print | Product List | Glossary On
Versions: 1 2 3 4 5 6 7 8 9 10 11 12 13 14 15 16 17 18 19 20 21 22 23 24 25 26 27 28 29 30 31 32 33 34 35 36 37 38 39 40 41 42 43 44 45 46 47 48 49 50
000
ASUS43 KBIS 311320
RWRBIS

NWR BROADCAST TEXT
NATIONAL WEATHER SERVICE BISMARCK ND
800 AM CDT FRI OCT 31 2014

NOTE: "FAIR" INDICATES FEW OR NO CLOUDS BELOW 12,000 FEET WITH NO
SIGNIFICANT WEATHER AND/OR OBSTRUCTIONS TO VISIBILITY.


CITY           SKY/WX    TMP DP  RH WIND       PRES   REMARKS
WILLISTON      CLOUDY    30  25  81 SE10G21   30.31F
MINOT          PTCLDY    19  14  81 SE9       30.46F WCI   8
MINOT AFB      PTCLDY    18  16  93 SE13      30.46F WCI   4
BISMARCK       PTCLDY    13  11  92 SE7       30.53F WCI   3
DICKINSON      CLOUDY    27  24  89 S17       30.33F WCI  14
GARRISON         N/A     25  21  85 S14G24    30.46F WCI  13
HETTINGER ARPT CLOUDY    27  25  92 SE16G25   30.39F WCI  15
JAMESTOWN      PTCLDY    12  10  92 CALM      30.57S
BEACH            N/A     32  32 100 SE25G43   30.25F WCI  19
CARRINGTON     FAIR      12  12 100 S8        30.55F WCI   1
CROSBY         FAIR      27  23  86 S18G26    30.31F WCI  13
HARVEY         FAIR      16  14  93 SE8       30.52F WCI   5
HAZEN          FAIR      19  18  93 SE8       30.47F WCI   9
LINTON         FAIR      16  16 100 SE9       30.54S WCI   4
MANDAN         FAIR      18  16  93 S9        30.50F WCI   6
OAKES            N/A     16  16 100 CALM      30.59S
RUGBY          FAIR      19  16  86 S8        30.52S WCI   9
STANLEY        PTSUNNY   23  23 100 S14       30.38F WCI  11
TIOGA          FAIR      25  25 100 SE22G28   30.35F WCI  10
$$

CITY           SKY/WX    TMP DP  RH WIND       PRES   REMARKS
GRAND FORKS    PTCLDY    12   9  87 W6        30.62S WCI   3
GRAND FORKS AF CLEAR     12  11  93 NW3       30.62R
DEVILS LAKE    PTCLDY    18   9  68 SE6       30.53F WCI   9
FARGO          CLEAR     15  10  80 CALM      30.61S
CANDO          FAIR      10   9  92 SE8       30.54F WCI  -1
CAVALIER       FAIR      14  12  92 CALM      30.61S FOG
GRAFTON        FAIR      14  12  92 CALM      30.62S
GWINNER        SUNNY     18  14  86 N7        30.61S WCI   8
LANGDON        FAIR       5   1  85 SE5       30.54S WCI  -4
ROLLA          FAIR      16  16 100 S9        30.50F WCI   4
WALHALLA         N/A     10  10 100 CALM      30.60F
$$

CITY           SKY/WX    TMP DP  RH WIND       PRES   REMARKS
ABERDEEN       PTCLDY    12   8  84 CALM      30.60S
MOBRIDGE       PTCLDY    19  14  81 CALM      30.52S
BUFFALO          N/A     31  29  92 SE22G30   30.25F WCI  18
RAPID CITY     CLOUDY    30  29  96 S18       30.38F FOG     WCI  18
GLASGOW        PTCLDY    32  28  85 SE21      30.10F WCI  20
SIDNEY         CLOUDY    34  27  75 SE16G26   30.28F
WOLF POINT     MOCLDY    35  30  82 SE14      30.19F
GLENDIVE       PTCLDY    32  27  80 SE14      30.23F
MILES CITY     PTCLDY    34  30  85 SE22G33   30.15F
BAKER          CLOUDY    31  28  89 SE26G37   30.24F WCI  17
$$

CITY           SKY/WX    TMP DP  RH WIND       PRES   REMARKS
BILLINGS       CLOUDY    36  30  79 N5        30.02F
GREAT FALLS    MOCLDY    57  29  34 S23G32    29.84F
REGINA         CLOUDY    25  23  93 SE25G35   30.21F WCI   9
ESTEVAN        CLOUDY    18  16  93 E9        30.32F WCI   6
$$




USA.gov is the U.S. government's official web portal to all federal, state and local government web resources and services.